Погода в Алофи

Ниуэ     19°03′27″S   169°55′19″W
темп.,
°C
ветер,
м/с
пор.,
м/с
влажн.,
%
обл.,
%
осадки,
мм/ч
давл.,
гПа
погр.,
м
29 июля, чт
чт2901:00+24вюв667638 0.7 1018794
04:00+24юв667628 0.3 1017816
07:00+24юв777826 0.6 1018825
10:00+24вюв887473 0.0 1019999
13:00+25в787299 0.1 10171110
16:00+25в667498 0.1 1015761
19:00+25в777621 0.3 1016792
22:00+25в8876100 0.0 1017864
30 июля, пт
пт3001:00+25в7776100 0.3 1016827
04:00+25в7877100 0.7 1014825
07:00+25в887732 0.9 1015871
10:00+25всв997886 0.1 1016899
13:00+26св997813 0.1 1013911
16:00+26св9107925 0.1 1011904
19:00+26св9108297 0.2 1011898
22:00+26ссв91182100 0.6 1013843
31 июля, сб
сб3101:00+26ссв91184100 1.8 1011889
04:00+26с91285100 0.4 1009879
07:00+26с101386100 1.7 1010897
10:00+26с101488100 1.6 1010906
13:00+26ссз111588100 5.6 10081029
16:00+26ссз121689100 2.8 10061082
19:00+26ссз121688100 4.7 10071161
22:00+26сз131782100 2.4 10081221
1 августа, вс
вс101:00+26сз121788100 5.9 10071268
04:00+25зсз12168816 2.7 10061060
07:00+25зсз11148491 6.3 10081005
10:00+25зсз91185100 2.1 1010797
13:00+25зсз10118225 3.1 1008852
16:00+25зсз9118125 0.6 1007921
19:00+25з9128012 0.8 1009968
22:00+25з10127829 0.3 10101095
2 августа, пн
пн201:00+25з10147531 0.3 10101305
04:00+25з11137219 0.0 10091263
07:00+25з1011670 0.0 10111169
10:00+25з10117216 0.0 10131246
13:00+25зюз997555 0.4 10121055
16:00+25юз996840 0.2 10111153
19:00+25юз786415 0.2 10131242
22:00+24ююз66695 0.1 10151015